Regional Weather Roundup
Issued by NWS

Home | Current Version | Previous Version | Graphics & Text | Print | Product List | Glossary Off
Versions: 1 2 3 4 5 6 7 8 9 10 11 12 13 14 15 16 17 18 19 20 21 22 23 24 25 26 27 28 29 30 31 32 33 34 35 36 37 38 39 40 41 42 43 44 45 46 47 48 49 50

000
ASUS43 KFSD 231202
RWRSD

WEATHER ROUNDUP FOR SOUTH DAKOTA
NATIONAL WEATHER SERVICE SIOUX FALLS SD
700 AM CDT SAT AUG 23 2014

NOTE: "FAIR" INDICATES FEW OR NO CLOUDS BELOW 12,000 FEET WITH NO
SIGNIFICANT WEATHER AND/OR OBSTRUCTIONS TO VISIBILITY.


SDZ001>005-009-010-012>017-231300-
NORTHWEST AND NORTH CENTRAL SOUTH DAKOTA

CITY           SKY/WX    TMP DP  RH WIND       PRES   REMARKS
BUFFALO          N/A     63  62  97 E18G25    29.86F
FAITH            N/A     63  62  97 NE17      29.92F
MOBRIDGE       LGT RAIN  63  63 100 E20G29    29.92S FOG
$$

SDZ012>016-024>037-041>051-057-063-072>074-231300-
SOUTHWEST AND SOUTH CENTRAL SOUTH DAKOTA

CITY           SKY/WX    TMP DP  RH WIND       PRES   REMARKS
RAPID CTY ARPT LGT RAIN  64  60  87 CALM      29.91F
PIERRE         LGT RAIN  67  67 100 E17G23    29.85S FOG
ELLSWORTH AFB  DRIZZLE   64  63  94 CALM      29.91F
PHILIP         CLOUDY    67  64  90 N5        29.87S
PINE RIDGE     CLOUDY    62  62 100 CALM      29.90F
WINNER         CLOUDY    69  67  93 E10       29.84S
$$

SDZ004>011-016>023-039-040-231300-
NORTHEAST SOUTH DAKOTA

CITY           SKY/WX    TMP DP  RH WIND       PRES   REMARKS
ABERDEEN       CLOUDY    64  64 100 NE14      29.96S FOG
WATERTOWN      LGT RAIN  68  67  96 E8        29.95F
SISSETON         N/A     66  66 100 NE3       29.98F
$$

SDZ017-020-022-023-036>040-048>070-231300-
SOUTHEAST SOUTH DAKOTA

CITY           SKY/WX    TMP DP  RH WIND       PRES   REMARKS
SIOUX FALLS    CLOUDY    69  67  93 E7        29.90R
HURON          LGT RAIN  70  69  97 E12       29.85F
CHAMBERLAIN    CLOUDY    67  67  97 E6        29.85S
MITCHELL       CLOUDY    70  68  93 E8        29.85S
YANKTON        CLOUDY    68  66  94 NE5       29.87F
$$

ABBREVIATIONS USED IN REMARKS
   TC - TEMPERATURE IN CELSIUS
  WCI - WIND CHILL INDEX
   HX - HEAT INDEX
  VSB - VISIBILITY




USA.gov is the U.S. government's official web portal to all federal, state and local government web resources and services.